KE9LZ-9 Weather Reports


time (UTC)temp
C
wind
direction
speed
KPH
gust
KPH
rain 1hr
cm
rain 24hr
cm
rain mn
cm
humidity
%
barometer
mb
20260904210004 20 27 3.2 4.8 0.00 0.08 0.08 99 1014.4
20260904205004 20 17 1.6 4.8 0.00 0.08 0.08 99 1014.5
20260904203004 20 13 1.6 3.2 0.00 0.08 0.08 99 1014.7
20260904201004 20 80 1.6 4.8 0.00 0.08 0.08 99 1014.7
20260904200004 20 27 1.6 3.2 0.00 0.08 0.08 99 1014.9
20260904195004 20 14 1.6 3.2 0.00 0.08 0.08 99 1014.8
20260904194004 20 355 1.6 3.2 0.00 0.08 0.08 99 1014.8
20260904193004 20 9 1.6 3.2 0.00 0.08 0.08 99 1014.9
20260904192004 20 359 1.6 3.2 0.00 0.08 0.08 99 1014.9
20260904191004 21 13 0.0 3.2 0.00 0.08 0.08 99 1014.8
20260904190004 21 12 0.0 3.2 0.00 0.08 0.08 99 1014.7
20260904185004 21 13 0.0 3.2 0.00 0.08 0.08 99 1014.7
20260904184004 21 13 1.6 3.2 0.00 0.08 0.08 99 1014.7
20260904183004 22 350 0.0 3.2 0.00 0.08 0.08 98 1014.3
20260904182004 22 1 1.6 3.2 0.00 0.08 0.08 97 1014.4
20260904181004 22 357 1.6 3.2 0.00 0.08 0.08 97 1014.3
20260904180003 22 9 3.2 3.2 0.00 0.08 0.08 97 1014.4
20260904175003 22 187 0.0 3.2 0.00 0.08 0.08 97 1014.3
20260904174004 22 160 1.6 3.2 0.00 0.08 0.08 97 1014.5
20260904173004 21 0 1.6 3.2 0.00 0.08 0.08 98 1014.4
20260904172004 21 346 1.6 3.2 0.00 0.08 0.08 98 1014.3
20260904171004 21 345 1.6 3.2 0.00 0.08 0.08 98 1014.4
20260904170004 21 339 3.2 3.2 0.00 0.10 0.08 99 1014.4
20260904165003 21 351 3.2 4.8 0.00 0.10 0.08 99 1014.5
20260904164004 21 52 1.6 4.8 0.00 0.10 0.08 99 1014.7
20260904163004 21 4 1.6 4.8 0.00 0.10 0.08 99 1014.6
20260904162004 20 100 1.6 3.2 0.00 0.10 0.08 99 1014.7
20260904161004 20 347 3.2 3.2 0.00 0.10 0.08 99 1014.7
20260904160004 20 25 1.6 3.2 0.00 0.10 0.08 99 1014.6
20260904155003 19 79 1.6 3.2 0.00 0.10 0.08 99 1014.5
20260904154004 19 56 0.0 1.6 0.00 0.10 0.08 99 1014.5
20260904153004 19 73 1.6 3.2 0.00 0.10 0.08 99 1014.5
20260904152003 18 45 0.0 1.6 0.00 0.10 0.08 99 1014.6
20260904151004 18 351 1.6 3.2 0.00 0.10 0.08 99 1014.6
20260904145003 18 2 1.6 3.2 0.00 0.10 0.08 99 1014.4
20260904144003 18 12 1.6 3.2 0.03 0.10 0.08 99 1014.4
20260904143004 18 45 0.0 4.8 0.03 0.10 0.08 99 1014.5
20260904142004 17 3 1.6 3.2 0.03 0.10 0.08 99 1014.9
20260904141004 17 328 1.6 3.2 0.00 0.10 0.05 99 1015.0
20260904135004 17 357 3.2 4.8 0.00 0.10 0.05 99 1014.9
20260904133004 17 18 1.6 4.8 0.00 0.10 0.05 99 1015.1
20260904132004 17 50 1.6 4.8 0.00 0.10 0.05 99 1014.9
20260904131004 17 66 1.6 4.8 0.00 0.10 0.05 99 1014.9
20260904130004 17 22 1.6 3.2 0.00 0.10 0.05 99 1014.8
20260904125004 17 24 1.6 3.2 0.00 0.10 0.05 99 1014.6
20260904124003 17 348 0.0 4.8 0.00 0.10 0.05 99 1014.2
20260904123004 17 11 1.6 4.8 0.00 0.10 0.05 99 1014.1
20260904122004 17 7 1.6 4.8 0.00 0.10 0.05 99 1014.2
20260904121003 17 358 1.6 4.8 0.00 0.10 0.05 99 1014.4
20260904115004 17 9 1.6 4.8 0.00 0.10 0.05 99 1014.5
20260904114004 17 325 1.6 3.2 0.00 0.10 0.05 99 1014.3
20260904113004 17 356 1.6 3.2 0.00 0.10 0.05 99 1013.7
20260904112003 17 27 1.6 3.2 0.00 0.10 0.05 99 1013.6
20260904111004 17 321 0.0 3.2 0.00 0.10 0.05 99 1013.7
20260904110004 17 352 1.6 3.2 0.00 0.10 0.05 99 1013.9
20260904105004 17 26 1.6 4.8 0.00 0.10 0.05 99 1013.8
20260904104004 17 15 1.6 3.2 0.00 0.10 0.05 99 1013.7
20260904103004 17 39 1.6 3.2 0.00 0.10 0.05 99 1013.8
20260904101004 17 2 1.6 3.2 0.00 0.10 0.05 99 1014.2
20260904100004 17 13 1.6 4.8 0.00 0.10 0.05 99 1014.0
20260904095004 17 84 1.6 4.8 0.00 0.10 0.05 99 1014.3
20260904094004 17 40 3.2 4.8 0.00 0.10 0.05 99 1014.3
20260904093004 17 96 1.6 4.8 0.00 0.10 0.05 99 1014.6
20260904092004 16 23 1.6 4.8 0.00 0.10 0.05 99 1014.7
20260904091004 16 13 1.6 4.8 0.00 0.10 0.05 99 1014.4
20260904090004 17 39 1.6 4.8 0.00 0.10 0.05 99 1015.4
20260904083004 17 31 1.6 3.2 0.00 0.10 0.05 99 1014.7
20260904082004 17 23 1.6 3.2 0.00 0.10 0.05 99 1014.4
20260904081004 17 1 1.6 3.2 0.00 0.10 0.05 99 1014.1
20260904080004 17 6 1.6 3.2 0.00 0.10 0.05 99 1014.3
20260904075004 17 30 1.6 3.2 0.00 0.10 0.05 99 1014.4
20260904074004 17 344 1.6 3.2 0.00 0.10 0.05 99 1014.7
20260904073004 17 348 1.6 3.2 0.03 0.10 0.05 99 1014.5
20260904072004 17 288 1.6 3.2 0.03 0.10 0.05 99 1014.2
20260904070004 17 22 1.6 3.2 0.03 0.10 0.05 99 1014.1
20260904065004 17 5 1.6 3.2 0.03 0.10 0.05 99 1014.3
20260904064004 17 0 0.0 3.2 0.03 0.08 0.05 99 1014.3
20260904063003 17 350 1.6 3.2 0.03 0.05 0.03 99 1013.8
20260904062003 17 11 1.6 3.2 0.03 0.05 0.03 99 1013.5
20260904061004 17 19 0.0 4.8 0.03 0.05 0.03 99 1013.7
20260904055004 17 5 1.6 3.2 0.03 0.05 0.03 99 1014.8
20260904054004 17 53 1.6 3.2 0.00 0.05 0.00 99 1014.5
20260904053004 17 32 3.2 3.2 0.00 0.05 0.00 99 1014.7
20260904052003 17 28 1.6 3.2 0.00 0.05 0.00 99 1014.9
20260904051004 17 0 3.2 3.2 0.00 0.05 0.00 99 1014.7
20260904050004 17 13 1.6 3.2 0.00 0.05 0.00 99 1015.1
20260904045004 17 314 3.2 3.2 0.00 0.05 0.05 99 1015.0
20260904044004 17 23 1.6 3.2 0.00 0.05 0.05 99 1015.1
20260904043004 17 334 1.6 3.2 0.00 0.05 0.05 99 1015.3
20260904042004 17 339 1.6 1.6 0.00 0.05 0.05 99 1015.4
20260904041004 17 347 0.0 3.2 0.00 0.05 0.05 99 1015.4
20260904040004 17 315 0.0 3.2 0.00 0.05 0.05 99 1015.4
20260904035004 17 22 1.6 3.2 0.00 0.05 0.05 99 1015.2
20260904034003 17 17 1.6 3.2 0.00 0.05 0.05 99 1015.4
20260904033004 17 45 1.6 3.2 0.00 0.05 0.05 99 1014.9
20260904032004 17 46 1.6 3.2 0.00 0.05 0.05 99 1015.3
20260904031004 17 11 1.6 3.2 0.00 0.05 0.05 99 1015.2
20260904025004 17 341 1.6 3.2 0.00 0.05 0.05 99 1015.6
20260904024005 17 34 0.0 3.2 0.00 0.05 0.05 99 1015.4
20260904023003 17 303 1.6 3.2 0.00 0.05 0.05 99 1015.7
20260904022004 17 21 0.0 1.6 0.00 0.05 0.05 99 1015.5
20260904021003 18 24 1.6 1.6 0.00 0.05 0.05 99 1015.1
20260904020004 18 0 0.0 1.6 0.00 0.05 0.05 99 1015.4
20260904015004 18 355 1.6 1.6 0.00 0.05 0.05 99 1015.5
20260904014004 18 359 0.0 1.6 0.00 0.05 0.05 99 1015.6
20260904013004 18 11 1.6 1.6 0.00 0.05 0.05 99 1015.4
20260904011004 18 312 0.0 1.6 0.00 0.05 0.05 98 1015.3
20260904005003 19 355 0.0 1.6 0.00 0.05 0.05 97 1014.9
20260904004004 19 29 0.0 1.6 0.00 0.05 0.05 97 1014.8
20260904002004 20 11 0.0 3.2 0.00 0.05 0.05 95 1015.0
20260903235003 20 73 1.6 3.2 0.00 0.05 0.05 93 1014.6
20260903234004 20 267 1.6 4.8 0.00 0.05 0.05 93 1014.6
20260903233003 21 48 1.6 3.2 0.00 0.05 0.05 91 1014.6
20260903232004 21 344 0.0 3.2 0.00 0.05 0.05 91 1014.7
20260903231004 21 315 0.0 3.2 0.00 0.05 0.05 89 1014.7
20260903230003 21 12 0.0 3.2 0.00 0.05 0.05 89 1014.6
20260903224004 21 10 1.6 3.2 0.00 0.05 0.05 87 1014.1
20260903223003 22 6 1.6 4.8 0.00 0.05 0.05 88 1014.2
20260903222003 22 103 3.2 4.8 0.00 0.05 0.05 84 1014.2
20260903221003 22 29 3.2 4.8 0.00 0.05 0.05 84 1014.3
20260903220004 22 109 1.6 4.8 0.00 0.05 0.05 87 1014.5
20260903215004 22 68 1.6 4.8 0.00 0.05 0.05 86 1014.5
20260903214004 22 81 3.2 4.8 0.00 0.05 0.05 87 1014.4
20260903212004 22 48 3.2 4.8 0.00 0.05 0.05 88 1014.2
20260903211003 22 311 3.2 4.8 0.00 0.05 0.05 89 1014.5